Погода Свободный

Погода Свободный : погода сейчас, прогноз погоды и архив. Всё, что Вы хотите узнать о погоде Свободный!

Хотите узнать прогноз погоды Свободный? Тогда Вам сюда: Погода Свободный

Поиск расширенной информации на нашем сайте:

Другие новости

Новости СМИ2

Главная страница сайта

Новости сайта

03.07.2017

Напоминаем, что на нашем специализированном сайте Метеоцентр.Азия вы можете получить высокодетализированные автоматические прогнозы погоды по пунктам России, СНГ и мира в авиационном формате (включающие направление и скорость ветра, видимость, явления погоды, количество и форму облачности, нижнюю и верхнюю границу облачности).


Погода Свободный - сегодня

Время (UTC), дата Ветер
(°,м/с) 
Видим.   Явления Облачность Т
(°С)
Тd
(°С)
f(%) Тe
(°С)
Pmin
(гПа)
dP
(гПа)
Po
(мм)
O2
(г/м3)
Тmin Tmax R s Состояние
почвы
15 20.08.17 100 (В) 40000 м    6/0 верхняя 
[Ci fib]
+19.9 +18.9 94 +38  1006.8  -0.8  738  273           
18 20.08.17 тихо ()   40000 м    3/0 верхняя 
[Ci fib]
+18.2 +17.5 96 +32  1005.6  -1.3  737  274           
21 20.08.17 120 (ЮВ) 20000 м    10/3 1000 м кучево-дожд., средняя 
[Cb calv|Ac trans]
+18.4 +17.3 93 +34  1004.7  -0.9  736  274           
00 21.08.17 140 (ЮВ) 20000 м  в посл. час ливневой дождь  8/8 600 м кучево-дожд. 
[Cb calv]
+19.9 +19.1 95 +38  1003.3  -1.2  735  272  +18    0.6    влажная 
03 21.08.17 140 (ЮВ) 20000 м    10/4 1000 м верхняя 
[Cu hum|Ci sp]
+26.2 +20.8 72 +48  1000.2  -2.5  733  264           
06 21.08.17 180 (Ю) 3{13}  4000 м  слаб. ливневой дождь{гроза}  10/10 600 м кучево-дожд. 
[Cb calv]
+21.6 +20.7 95 +43  998.8  -1.7  732  268           
09 21.08.17 190 (Ю) 1{13}  1000 м  ливневой дождь, в посл. час гроза  10/10 600 м кучево-дожд. 
[Cb calv]
+18.3 +17.7 96 +35  998.2  -0.9  731  272           
12 21.08.17 330 (СЗ) 50000 м  гроза без осадков{ливн. осадки}  10/10 600 м кучево-дожд. 
[Cb calv]
+18.5 +18 97 +35  999  0.8  732  272    +27.2  53     
15 21.08.17 170 (Ю) 50000 м  {гроза, ливн. осадки}  6/6 600 м кучево-дожд. 
[Cb calv]
+17.5 +17 97 +31  998.6  -0.5  732  273           
18 21.08.17 180 (Ю) 50000 м  {гроза, ливн. осадки}  ясно 
+16.6 +15.1 91 +27  998.7  732  275           
21 21.08.17 190 (Ю) 20000 м    10/10 200 м 
[St]
+16.1 +15 93 +26  999.3  732  275           
00 22.08.17 210 (ЮЗ) 20000 м    6/0 средняя, верхняя 
[Ac trans|Ci fib]
+20 +13.7 67 +27  999.4  0.4  732  272  +16.1    0.8    мокрая 
03 22.08.17 220 (ЮЗ) 20000 м    10/0 верхняя 
[Ci sp]
+21.6 +12.9 58 +27  998.8  -0.4  732  271           
06 22.08.17 240 (ЮЗ) 10 км    8/8 600 м кучево-дожд. 
[Cb calv]
+20.9 +11.9 56 +25  998.8  -0.4  732  272           
09 22.08.17 240 (ЮЗ) 2{12}  4000 м  дымка  10/3 600 м кучево-дожд., средняя, верхняя 
[Cb calv|Ac trans|Ci fib]
+18.8 +11.2 61 +23  1000.7  1.7  733  274           
12 22.08.17 190 (Ю) 4000 м  дымка  10/0 средняя, верхняя 
[Ac trans|Ci sp]
+14.7 +11.9 83 +20  1002  734  278    +23.3       
15 22.08.17 260 (З) 6000 м  дымка  10/0 верхняя 
[Ci sp]
+13.6 +11.3 86 +18  1002.2  0.1  734  280           
18 22.08.17 250 (З) 5000 м  дымка  10/0 верхняя 
[Ci sp]
+14.9 +11.5 80 +20  1002.9  0.7  735  278           
21 22.08.17 280 (З) 4000 м  дымка  4/0 средняя 
[Ac trans]
+13.1 +11.3 89 +17  1003.5  0.5  735  280           
00 23.08.17 270 (З) 4000 м  дымка  9/0 средняя 
[Ac trans]
+18.4 +12.7 69 +24  1003.4  0.3  735  275  +13        влажная 
03 23.08.17 270 (З) 20000 м    8/8 600 м кучево-дожд. 
[Cb calv]
+20.5 +12.7 61 +26  1002.8  -0.4  735  273           
06 23.08.17 290 (З) 20000 м    6/6 1000 м 
[Sc diur, vesp]
+21.6 +13.4 60 +28  1002.5  -0.2  735  272           
09 23.08.17 300 (СЗ) 20000 м    8/3 1000 м средняя 
[Sc diur, vesp|Ac cuf]
+19.8 +15.1 74 +30  1002.4  -0.2  735  273           
12 23.08.17 240 (ЮЗ) 50000 м    8/0 средняя, верхняя 
[Ac trans|Ci fib]
+15.1 +14.4 96 +24  1002.9  0.1  735  277    +22.8       
15 23.08.17 тихо ()   50000 м    4/0 верхняя 
[Ci fib]
+13.4 +12.9 97 +19  1002.9  -0.2  735  280           
Время (UTC), дата Ветер
(°,м/с) 
Видим.   Явления Облачность Т
(°С)
Тd
(°С)
f(%) Тe
(°С)
Pmin
(гПа)
dP
(гПа)
Po
(мм)
O2
(г/м3)
Тmin Tmax R s Состояние
почвы

Для получения пояснительной информации подведите курсор к названию столбца.

ПОГОДА Свободный - архив

Всё, что Вы хотите узнать о погоде Свободный - удобно и подробно!

Выберите нужную дату (начиная с 1 января 2015* года) и нажмите кнопку "Найти".
Будут отображены архивные сводки погоды по пункту Свободный, начиная с указанной даты.


Отображать данные в формате CSV (для использования в таблицах Excel)


Внимание! Наш архив погоды предназначен исключительно для личного некоммерческого использования в познавательных целях. Если Вам необходимы официальные справки о состоянии погоды (для производственных, юридических, коммерческих и т.п. целей), обращайтесь в органы Росгидромета.

*Примечание: данная дата относится к архиву по метеостанциям СССР (Россия, СНГ, Балтия).
Архив по метеостанциям Зарубежной Европы и Азии (кроме Китая) хранится 10 дней, по другим регионам земного шара (Китай, Африка, Америка, Австралия, Океания) - 1 день.

Свободный - район местоположения метеостанции


Название, широта, долгота, высота метеостанции:
Свободный 51.4°ш. 128.1°д. 197 м над ур. моря [Российская Федерация]

Дополнительная информация

В oтличие oт бoльшинства пoгoдных сайтoв мы публикуем пoдрoбную метеoинфoрмацию в детальнoм прoфессиoнальнoм фoрмате.

Характеристики температуры и влажнoсти вoздуха измеряются на высoте 2 м в тени вдали oт зданий и деревьев.
Скoрoсть ветра измеряется на высoте 10 м (на урoвне рoста челoвека скoрoсть ветра ниже в 1.5-2 раза). Если метеoстанция нахoдится в гoрoде или в лесу, тo скoрoсть ветра занижена на 2-4 м/с пo сравнению с oткрытым местoм. Скoрoсть ветра над акватoриями крупных рек и oзёр, а также на вершинах хoлмoв на 2-5 м/с выше, чем в oбычных услoвиях.
Атмoсфернoе давление в разных тoчках местнoсти мoжет значительнo oтличаться oт давления на метеoстанции, в зависимoсти oт услoвий рельефа (при пoдъёме на 10 м давление пoнижается примернo на 1 мм рт.ст.).